Location: Multiple Mirror Telescope
(31.6889°N, 110.8853°W)
Time: 09:56:02
(UTC-07:00)

Hubble Space Telescope - Pass Details

Date: 27 May 2024
Orbit: 511 x 515 km, 28.5° (Epoch: 14 June)

Event Time Altitude Azimuth Distance (km) Brightness Sun altitude
Rises 20:18:04 0° 246° (WSW) 2,609 4.7 -11.2°
Reaches altitude 10° 20:20:23 10° 238° (WSW) 1,723 3.7 -11.6°
Maximum altitude 20:24:07 39° 169° (SSE) 768 1.2 -12.3°
Enters shadow 20:26:29 19° 109° (ESE) 1,242 2.0 -12.7°
